TimeCST,TemperatureF,Dew PointF,Humidity,Sea Level PressureIn,VisibilityMPH,Wind Direction,Wind SpeedMPH,Gust SpeedMPH,PrecipitationIn,Events,Conditions,WindDirDegrees,DateUTC
12:15 AM,34.0,30.7,88,29.88,7.0,NNW,6.9,-,N/A,,Overcast,330,2012-12-19 06:15:00
12:35 AM,34.0,30.7,88,29.89,7.0,NNW,4.6,-,N/A,,Overcast,330,2012-12-19 06:35:00
12:55 AM,34.0,30.7,88,29.89,7.0,North,4.6,-,N/A,,Overcast,350,2012-12-19 06:55:00
1:15 AM,33.8,30.6,88,29.90,7.0,NNW,5.8,-,N/A,,Overcast,340,2012-12-19 07:15:00
1:35 AM,33.8,30.6,88,29.91,7.0,North,4.6,-,N/A,,Overcast,350,2012-12-19 07:35:00
1:55 AM,33.8,30.6,88,29.91,7.0,Calm,Calm,-,N/A,,Overcast,0,2012-12-19 07:55:00
2:15 AM,33.8,30.7,89,29.92,7.0,North,3.5,-,N/A,,Overcast,360,2012-12-19 08:15:00
2:35 AM,33.8,30.9,89,29.92,7.0,NNW,4.6,-,N/A,,Overcast,330,2012-12-19 08:35:00
2:55 AM,33.8,30.9,89,29.93,7.0,NNW,5.8,-,N/A,,Overcast,340,2012-12-19 08:55:00
3:15 AM,33.4,30.2,88,29.94,5.0,NW,4.6,-,N/A,,Overcast,320,2012-12-19 09:15:00
3:35 AM,33.4,30.2,88,29.95,5.0,Calm,Calm,-,N/A,,Overcast,0,2012-12-19 09:35:00
3:55 AM,33.8,30.6,88,29.96,5.0,Calm,Calm,-,N/A,,Overcast,0,2012-12-19 09:55:00
4:15 AM,34.0,30.0,85,29.97,5.0,WSW,4.6,-,N/A,,Overcast,250,2012-12-19 10:15:00
4:35 AM,34.0,30.2,86,29.97,5.0,Calm,Calm,-,N/A,,Overcast,0,2012-12-19 10:35:00
4:55 AM,33.8,30.2,87,29.96,7.0,Calm,Calm,-,N/A,,Overcast,0,2012-12-19 10:55:00
5:15 AM,33.4,30.7,90,29.97,5.0,Calm,Calm,-,N/A,,Overcast,0,2012-12-19 11:15:00
5:35 AM,33.8,30.7,89,29.98,7.0,SW,3.5,-,N/A,,Overcast,220,2012-12-19 11:35:00
5:55 AM,33.8,30.7,89,29.99,7.0,SW,3.5,-,N/A,,Overcast,230,2012-12-19 11:55:00
6:15 AM,33.8,30.7,89,29.99,7.0,Calm,Calm,-,N/A,,Overcast,0,2012-12-19 12:15:00
6:35 AM,33.8,30.9,89,30.01,7.0,Calm,Calm,-,N/A,,Overcast,0,2012-12-19 12:35:00
6:55 AM,33.8,30.9,89,30.01,7.0,Calm,Calm,-,N/A,,Overcast,0,2012-12-19 12:55:00
7:15 AM,33.8,30.9,89,30.01,7.0,Calm,Calm,-,N/A,,Overcast,0,2012-12-19 13:15:00
7:35 AM,33.3,31.1,92,30.00,5.0,Calm,Calm,-,N/A,,Overcast,0,2012-12-19 13:35:00
7:55 AM,33.8,31.8,92,30.01,4.0,Calm,Calm,-,N/A,,Overcast,0,2012-12-19 13:55:00
8:15 AM,33.8,32.0,93,30.01,4.0,Calm,Calm,-,N/A,,Overcast,0,2012-12-19 14:15:00
8:35 AM,34.0,31.8,92,30.02,4.0,SSE,3.5,-,N/A,,Overcast,160,2012-12-19 14:35:00
8:55 AM,34.0,31.6,91,30.04,4.0,SSE,4.6,-,N/A,,Overcast,160,2012-12-19 14:55:00
9:15 AM,34.2,31.5,90,30.03,4.0,ESE,3.5,-,N/A,,Overcast,120,2012-12-19 15:15:00
9:35 AM,34.7,31.8,89,30.02,4.0,East,3.5,-,N/A,,Overcast,100,2012-12-19 15:35:00
9:55 AM,34.9,31.5,87,30.01,4.0,ENE,5.8,-,N/A,,Overcast,70,2012-12-19 15:55:00
10:15 AM,35.1,31.3,86,30.03,4.0,ESE,3.5,-,N/A,,Overcast,120,2012-12-19 16:15:00
10:35 AM,35.2,31.5,86,30.03,5.0,SE,4.6,-,N/A,,Overcast,130,2012-12-19 16:35:00
10:55 AM,35.4,31.5,85,30.03,5.0,SE,5.8,-,N/A,,Overcast,140,2012-12-19 16:55:00
11:15 AM,35.6,31.5,85,30.02,5.0,SSE,4.6,-,N/A,,Haze,160,2012-12-19 17:15:00
11:35 AM,35.8,31.1,83,30.02,5.0,SE,3.5,-,N/A,,Haze,130,2012-12-19 17:35:00
11:55 AM,36.1,30.9,81,30.03,7.0,SE,4.6,-,N/A,,Overcast,130,2012-12-19 17:55:00
12:15 PM,36.5,31.1,81,30.04,7.0,South,4.6,-,N/A,,Overcast,180,2012-12-19 18:15:00
12:35 PM,36.7,30.9,80,30.02,7.0,SSE,3.5,-,N/A,,Overcast,150,2012-12-19 18:35:00
12:55 PM,36.9,31.3,80,30.02,5.0,SSE,3.5,-,N/A,,Haze,150,2012-12-19 18:55:00
1:15 PM,36.5,31.6,83,30.01,5.0,South,4.6,-,N/A,,Haze,170,2012-12-19 19:15:00
1:35 PM,37.4,31.8,80,30.01,7.0,SE,4.6,-,N/A,,Overcast,140,2012-12-19 19:35:00
1:55 PM,37.8,31.6,79,30.01,7.0,ESE,4.6,-,N/A,,Mostly Cloudy,110,2012-12-19 19:55:00
2:15 PM,37.8,31.8,79,30.00,7.0,ENE,4.6,-,N/A,,Scattered Clouds,70,2012-12-19 20:15:00
2:35 PM,37.6,31.8,80,30.00,7.0,ENE,6.9,-,N/A,,Scattered Clouds,60,2012-12-19 20:35:00
2:55 PM,37.4,32.0,81,29.99,7.0,NE,9.2,-,N/A,,Clear,50,2012-12-19 20:55:00
3:15 PM,37.0,32.0,82,29.99,7.0,ENE,9.2,-,N/A,,Mostly Cloudy,70,2012-12-19 21:15:00
3:35 PM,36.9,32.0,83,29.98,7.0,ENE,9.2,-,N/A,,Mostly Cloudy,60,2012-12-19 21:35:00
3:55 PM,36.7,32.0,83,29.98,7.0,ENE,9.2,-,N/A,,Overcast,60,2012-12-19 21:55:00
4:15 PM,36.5,32.0,84,29.98,7.0,ENE,8.1,-,N/A,,Overcast,60,2012-12-19 22:15:00
4:35 PM,36.5,32.0,84,29.98,7.0,ENE,10.4,-,N/A,,Overcast,70,2012-12-19 22:35:00
4:55 PM,36.1,32.0,85,29.97,7.0,ENE,9.2,-,N/A,,Overcast,60,2012-12-19 22:55:00
5:15 PM,36.1,31.8,84,29.96,7.0,ENE,15.0,18.4,N/A,,Overcast,60,2012-12-19 23:15:00
5:35 PM,36.0,31.6,84,29.96,7.0,ENE,10.4,17.3,N/A,,Overcast,70,2012-12-19 23:35:00
5:55 PM,35.6,32.0,87,29.97,7.0,ENE,10.4,17.3,N/A,Rain,Light Rain,70,2012-12-19 23:55:00
6:15 PM,35.6,31.8,86,29.96,7.0,NE,11.5,-,N/A,Rain,Light Rain,50,2012-12-20 00:15:00
6:35 PM,35.1,32.0,89,29.96,5.0,ENE,10.4,16.1,N/A,Snow,Light Snow,60,2012-12-20 00:35:00
6:55 PM,35.1,32.0,89,29.94,5.0,ENE,12.7,-,N/A,Rain,Light Rain,60,2012-12-20 00:55:00
7:15 PM,35.1,32.2,89,29.94,5.0,ENE,11.5,-,N/A,,Overcast,60,2012-12-20 01:15:00
7:35 PM,34.7,32.0,90,29.92,3.0,NE,11.5,-,N/A,Snow,Light Snow,50,2012-12-20 01:35:00
7:55 PM,33.8,32.2,94,29.88,3.0,NNE,17.3,23.0,0.01,Rain,Light Rain,30,2012-12-20 01:55:00
8:15 PM,34.0,32.5,94,29.88,3.0,NE,13.8,-,0.01,Rain,Light Rain,50,2012-12-20 02:15:00
8:35 PM,34.7,32.9,93,29.87,4.0,ENE,16.1,20.7,0.01,,Light Drizzle,60,2012-12-20 02:35:00
8:55 PM,34.9,32.9,92,29.88,4.0,ENE,12.7,23.0,0.01,,Overcast,60,2012-12-20 02:55:00
9:15 PM,34.9,32.9,92,29.88,4.0,East,13.8,19.6,N/A,,Overcast,80,2012-12-20 03:15:00
9:35 PM,34.9,32.9,92,29.88,4.0,ENE,15.0,18.4,N/A,,Overcast,60,2012-12-20 03:35:00
9:55 PM,34.7,32.9,93,29.85,3.0,NE,16.1,19.6,N/A,Rain,Light Rain,50,2012-12-20 03:55:00
10:15 PM,33.8,32.4,94,29.83,1.2,ENE,13.8,19.6,0.01,Snow,Light Snow,70,2012-12-20 04:15:00
10:35 PM,33.3,32.4,96,29.81,0.8,ENE,12.7,-,0.07,Snow,Snow,60,2012-12-20 04:35:00
10:55 PM,33.4,32.7,97,29.79,1.5,NE,16.1,-,0.10,Snow,Light Snow,50,2012-12-20 04:55:00
11:15 PM,33.8,32.9,96,29.76,2.5,NE,15.0,20.7,0.01,Snow,Light Snow,50,2012-12-20 05:15:00
11:35 PM,34.0,33.1,96,29.71,5.0,NE,19.6,25.3,0.01,,Overcast,50,2012-12-20 05:35:00
11:55 PM,34.3,32.9,94,29.69,4.0,NE,18.4,25.3,0.01,Snow-Thunderstorm,Light Thunderstorms and Snow,50,2012-12-20 05:55:00